VJC288 VVDN-VVTS

Flight info

Callsign VJC288
Flight time 1h 12m
Altitude 36000
Route SADIN1G SADIN Q1 DOVIN DOVIN5Q
Aircraft A321/M-SDE3FGHIRWY/LB1

Departure

Time 2026-05-06 00:30
Airport Da Nang International Airport (VVDN)

Arrival

Time 2026-05-06 01:42
Airport Tan Son Nhat International Airport (VVTS)
Time Latitude Longitude Altitude Speed Heading
2026-05-06 00:05 16.05374 108.20182 31 ft 0 kts 82°
2026-05-06 00:15 16.05373 108.20177 33 ft 4 kts 82°
2026-05-06 00:15 16.05369 108.20150 31 ft 4 kts 82°
2026-05-06 00:15 16.05365 108.20123 33 ft 4 kts 82°
2026-05-06 00:15 16.05362 108.20095 33 ft 4 kts 82°
2026-05-06 00:16 16.05359 108.20068 33 ft 3 kts 87°
2026-05-06 00:16 16.05358 108.20051 33 ft 2 kts 107°
2026-05-06 00:16 16.05363 108.20041 32 ft 2 kts 158°
2026-05-06 00:16 16.05374 108.20038 30 ft 2 kts 171°
2026-05-06 00:17 16.05375 108.20037 30 ft 0 kts 171°
2026-05-06 00:18 16.05372 108.20038 29 ft 0 kts 171°
2026-05-06 00:18 16.05354 108.20041 29 ft 4 kts 172°
2026-05-06 00:19 16.05329 108.20044 33 ft 3 kts 172°
2026-05-06 00:19 16.05309 108.20047 33 ft 4 kts 172°
2026-05-06 00:19 16.05255 108.20055 33 ft 10 kts 172°
2026-05-06 00:19 16.05186 108.20065 33 ft 9 kts 172°
2026-05-06 00:20 16.05124 108.20074 33 ft 9 kts 172°
2026-05-06 00:20 16.05066 108.20083 33 ft 8 kts 172°
2026-05-06 00:20 16.05010 108.20091 32 ft 7 kts 172°
2026-05-06 00:20 16.04971 108.20096 32 ft 6 kts 172°
2026-05-06 00:21 16.04930 108.20102 32 ft 6 kts 173°
2026-05-06 00:21 16.04888 108.20108 32 ft 7 kts 171°
2026-05-06 00:21 16.04827 108.20117 32 ft 11 kts 172°
2026-05-06 00:21 16.04745 108.20129 31 ft 12 kts 172°
2026-05-06 00:22 16.04668 108.20140 32 ft 11 kts 172°
2026-05-06 00:22 16.04596 108.20151 32 ft 10 kts 172°
2026-05-06 00:22 16.04528 108.20161 31 ft 10 kts 172°
2026-05-06 00:22 16.04464 108.20170 32 ft 9 kts 172°
2026-05-06 00:23 16.04405 108.20179 32 ft 8 kts 172°
2026-05-06 00:23 16.04354 108.20186 32 ft 7 kts 172°
2026-05-06 00:23 16.04297 108.20194 32 ft 11 kts 172°
2026-05-06 00:23 16.04211 108.20206 33 ft 12 kts 172°
2026-05-06 00:24 16.04129 108.20218 33 ft 11 kts 172°
2026-05-06 00:24 16.04053 108.20229 33 ft 11 kts 172°
2026-05-06 00:24 16.03984 108.20240 33 ft 10 kts 172°
2026-05-06 00:24 16.03920 108.20249 33 ft 9 kts 172°
2026-05-06 00:25 16.03863 108.20257 33 ft 8 kts 172°
2026-05-06 00:25 16.03811 108.20265 33 ft 7 kts 172°
2026-05-06 00:25 16.03764 108.20271 32 ft 7 kts 172°
2026-05-06 00:25 16.03696 108.20281 33 ft 15 kts 172°
2026-05-06 00:26 16.03588 108.20297 33 ft 15 kts 172°
2026-05-06 00:26 16.03484 108.20312 33 ft 14 kts 172°
2026-05-06 00:26 16.03400 108.20324 32 ft 11 kts 172°
2026-05-06 00:26 16.03324 108.20335 32 ft 11 kts 172°
2026-05-06 00:27 16.03250 108.20346 31 ft 11 kts 172°
2026-05-06 00:27 16.03179 108.20356 31 ft 10 kts 172°
2026-05-06 00:27 16.03135 108.20363 31 ft 9 kts 173°
2026-05-06 00:27 16.03085 108.20341 32 ft 5 kts 241°
2026-05-06 00:28 16.03076 108.20303 31 ft 6 kts 262°
2026-05-06 00:28 16.03074 108.20274 31 ft 6 kts 270°
2026-05-06 00:28 16.03087 108.20239 30 ft 5 kts 308°
2026-05-06 00:28 16.03112 108.20225 31 ft 5 kts 346°
2026-05-06 00:29 16.03142 108.20220 32 ft 3 kts 352°
2026-05-06 00:29 16.03205 108.20211 32 ft 27 kts 352°
2026-05-06 00:29 16.03632 108.20149 34 ft 94 kts 352°
2026-05-06 00:29 16.04464 108.20028 33 ft 145 kts 352°
2026-05-06 00:30 16.05604 108.19864 86 ft 179 kts 352°
2026-05-06 00:30 16.06799 108.19696 738 ft 172 kts 353°
2026-05-06 00:30 16.07993 108.19558 1280 ft 174 kts 354°
2026-05-06 00:30 16.09197 108.19453 1802 ft 173 kts 356°
2026-05-06 00:31 16.10399 108.19382 2302 ft 173 kts 358°
2026-05-06 00:31 16.11600 108.19345 2792 ft 172 kts
2026-05-06 00:31 16.12805 108.19342 3190 ft 179 kts
2026-05-06 00:31 16.14121 108.19399 3332 ft 199 kts 10°
2026-05-06 00:32 16.15480 108.19898 3467 ft 216 kts 32°
2026-05-06 00:32 16.16649 108.20957 3603 ft 233 kts 53°
2026-05-06 00:32 16.17390 108.22533 3728 ft 255 kts 79°
2026-05-06 00:32 16.17510 108.24415 4184 ft 266 kts 91°
2026-05-06 00:33 16.17523 108.26355 4857 ft 270 kts 90°
2026-05-06 00:33 16.17545 108.28321 5530 ft 274 kts 90°
2026-05-06 00:33 16.17572 108.30312 6210 ft 277 kts 89°
2026-05-06 00:33 16.17604 108.32327 6849 ft 280 kts 89°
2026-05-06 00:34 16.17638 108.34358 7480 ft 282 kts 89°
2026-05-06 00:34 16.17355 108.36382 7882 ft 287 kts 113°
2026-05-06 00:34 16.16166 108.38015 7978 ft 286 kts 143°
2026-05-06 00:34 16.14349 108.38807 7995 ft 287 kts 173°
2026-05-06 00:35 16.12349 108.38878 7995 ft 288 kts 179°
2026-05-06 00:35 16.10367 108.38894 7998 ft 289 kts 179°
2026-05-06 00:35 16.08355 108.38909 8051 ft 291 kts 179°
2026-05-06 00:35 16.06319 108.38931 8704 ft 293 kts 179°
2026-05-06 00:36 16.04275 108.38955 9370 ft 295 kts 179°
2026-05-06 00:36 16.02216 108.38979 9983 ft 297 kts 179°
2026-05-06 00:36 16.00097 108.39003 10230 ft 315 kts 179°
2026-05-06 00:36 15.97836 108.39032 10349 ft 334 kts 179°
2026-05-06 00:37 15.95448 108.39062 10477 ft 352 kts 179°
2026-05-06 00:37 15.92960 108.39094 10858 ft 360 kts 179°
2026-05-06 00:37 15.90444 108.39128 11384 ft 363 kts 179°
2026-05-06 00:37 15.87916 108.39162 11928 ft 366 kts 179°
2026-05-06 00:38 15.85360 108.39197 12478 ft 369 kts 179°
2026-05-06 00:38 15.82783 108.39232 13025 ft 371 kts 179°
2026-05-06 00:38 15.80185 108.39267 13556 ft 374 kts 179°
2026-05-06 00:38 15.77602 108.39298 14058 ft 377 kts 180°
2026-05-06 00:39 15.74965 108.39327 14538 ft 380 kts 180°
2026-05-06 00:39 15.72312 108.39358 15035 ft 382 kts 180°
2026-05-06 00:39 15.69646 108.39393 15521 ft 384 kts 180°
2026-05-06 00:39 15.66963 108.39429 15997 ft 387 kts 180°
2026-05-06 00:40 15.64261 108.39466 16470 ft 389 kts 180°
2026-05-06 00:40 15.61542 108.39502 16939 ft 392 kts 180°
2026-05-06 00:40 15.58847 108.39537 17383 ft 394 kts 180°
2026-05-06 00:40 15.56093 108.39487 17808 ft 396 kts 186°
2026-05-06 00:41 15.53380 108.38955 18234 ft 398 kts 197°
2026-05-06 00:41 15.50792 108.37913 18593 ft 400 kts 205°
2026-05-06 00:41 15.48258 108.36699 18938 ft 402 kts 205°
2026-05-06 00:41 15.45707 108.35489 19301 ft 404 kts 205°
2026-05-06 00:42 15.43135 108.34277 19645 ft 407 kts 205°
2026-05-06 00:42 15.40547 108.33062 20003 ft 409 kts 205°
2026-05-06 00:42 15.37950 108.31841 20342 ft 411 kts 205°
2026-05-06 00:42 15.35339 108.30611 20680 ft 413 kts 204°
2026-05-06 00:43 15.32713 108.29374 21036 ft 415 kts 205°
2026-05-06 00:43 15.30109 108.28146 21367 ft 418 kts 205°
2026-05-06 00:43 15.27454 108.26894 21701 ft 420 kts 204°
2026-05-06 00:43 15.24786 108.25637 22012 ft 423 kts 204°
2026-05-06 00:44 15.22101 108.24373 22340 ft 425 kts 204°
2026-05-06 00:44 15.19408 108.23102 22659 ft 427 kts 204°
2026-05-06 00:44 15.16695 108.21822 22977 ft 429 kts 204°
2026-05-06 00:44 15.13968 108.20534 23295 ft 432 kts 204°
2026-05-06 00:45 15.11229 108.19241 23594 ft 434 kts 204°
2026-05-06 00:45 15.08374 108.18201 23853 ft 436 kts 194°
2026-05-06 00:45 15.05377 108.17690 24102 ft 438 kts 184°
2026-05-06 00:45 15.02327 108.17608 24366 ft 440 kts 181°
2026-05-06 00:46 14.99260 108.17549 24617 ft 441 kts 181°
2026-05-06 00:46 14.96225 108.17480 24867 ft 443 kts 182°
2026-05-06 00:46 14.93341 108.17409 25106 ft 445 kts 182°
2026-05-06 00:46 14.90239 108.17331 25358 ft 447 kts 182°
2026-05-06 00:47 14.87168 108.17258 25597 ft 449 kts 182°
2026-05-06 00:47 14.84041 108.17188 25839 ft 451 kts 182°
2026-05-06 00:47 14.80902 108.17122 26079 ft 452 kts 182°
2026-05-06 00:47 14.77747 108.17054 26316 ft 454 kts 182°
2026-05-06 00:48 14.74581 108.16985 26555 ft 456 kts 182°
2026-05-06 00:48 14.71397 108.16915 26788 ft 458 kts 182°
2026-05-06 00:48 14.68204 108.16846 27020 ft 460 kts 182°
2026-05-06 00:48 14.65001 108.16778 27244 ft 462 kts 182°
2026-05-06 00:49 14.61782 108.16708 27457 ft 463 kts 182°
2026-05-06 00:49 14.58551 108.16632 27684 ft 465 kts 182°
2026-05-06 00:49 14.55307 108.16557 27893 ft 467 kts 182°
2026-05-06 00:49 14.52055 108.16487 28097 ft 468 kts 182°
2026-05-06 00:50 14.48790 108.16420 28303 ft 470 kts 182°
2026-05-06 00:50 14.45517 108.16350 28520 ft 472 kts 182°
2026-05-06 00:50 14.42232 108.16278 28728 ft 473 kts 182°
2026-05-06 00:50 14.38933 108.16206 28940 ft 475 kts 182°
2026-05-06 00:51 14.35612 108.16129 29155 ft 476 kts 182°
2026-05-06 00:51 14.32291 108.16050 29366 ft 478 kts 182°
2026-05-06 00:51 14.28966 108.15972 29649 ft 477 kts 182°
2026-05-06 00:51 14.25647 108.15900 29939 ft 477 kts 182°
2026-05-06 00:52 14.22333 108.15833 30204 ft 476 kts 182°
2026-05-06 00:52 14.19020 108.15769 30465 ft 475 kts 182°
2026-05-06 00:52 14.15718 108.15705 30737 ft 475 kts 182°
2026-05-06 00:52 14.12416 108.15639 31018 ft 473 kts 182°
2026-05-06 00:53 14.09127 108.15569 31304 ft 472 kts 182°
2026-05-06 00:53 14.05844 108.15494 31587 ft 471 kts 182°
2026-05-06 00:53 14.02570 108.15418 31885 ft 470 kts 182°
2026-05-06 00:53 13.99300 108.15346 32176 ft 469 kts 182°
2026-05-06 00:54 13.96043 108.15277 32486 ft 468 kts 182°
2026-05-06 00:54 13.92791 108.15205 32775 ft 467 kts 182°
2026-05-06 00:54 13.89552 108.15134 33075 ft 465 kts 182°
2026-05-06 00:54 13.86315 108.15061 33381 ft 464 kts 182°
2026-05-06 00:55 13.83093 108.14992 33699 ft 463 kts 182°
2026-05-06 00:55 13.79880 108.14921 34000 ft 461 kts 182°
2026-05-06 00:55 13.76674 108.14849 34250 ft 461 kts 182°
2026-05-06 00:55 13.73466 108.14780 34507 ft 460 kts 182°
2026-05-06 00:56 13.70260 108.14710 34731 ft 460 kts 182°
2026-05-06 00:56 13.67059 108.14639 34954 ft 460 kts 182°
2026-05-06 00:56 13.63901 108.14569 35184 ft 459 kts 182°
2026-05-06 00:56 13.61276 108.14509 35370 ft 459 kts 182°
2026-05-06 00:57 13.58080 108.14437 35595 ft 459 kts 182°
2026-05-06 00:57 13.54888 108.14366 35824 ft 459 kts 182°
2026-05-06 00:57 13.51695 108.14296 35927 ft 459 kts 182°
2026-05-06 00:58 13.45326 108.14163 35953 ft 456 kts 182°
2026-05-06 00:58 13.38980 108.14027 35949 ft 456 kts 182°
2026-05-06 00:59 13.32633 108.13884 35949 ft 456 kts 182°
2026-05-06 00:59 13.26287 108.13728 35952 ft 456 kts 182°
2026-05-06 01:00 13.19940 108.13574 35952 ft 456 kts 182°
2026-05-06 01:00 13.13592 108.13422 35943 ft 456 kts 182°
2026-05-06 01:01 13.07246 108.13273 35941 ft 456 kts 182°
2026-05-06 01:01 13.00890 108.13119 35941 ft 456 kts 182°
2026-05-06 01:02 12.94539 108.12967 35949 ft 457 kts 182°
2026-05-06 01:02 12.88189 108.12815 35947 ft 456 kts 182°
2026-05-06 01:03 12.81839 108.12661 35949 ft 456 kts 182°
2026-05-06 01:03 12.75490 108.12514 35945 ft 456 kts 182°
2026-05-06 01:04 12.69141 108.12360 35945 ft 456 kts 183°
2026-05-06 01:04 12.63647 108.12222 35949 ft 456 kts 182°
2026-05-06 01:05 12.57344 108.12092 35950 ft 456 kts 182°
2026-05-06 01:05 12.52184 108.12004 35953 ft 456 kts 182°
2026-05-06 01:06 12.45835 108.11886 35957 ft 455 kts 182°
2026-05-06 01:06 12.39930 108.11766 35961 ft 455 kts 182°
2026-05-06 01:07 12.33598 108.11636 35965 ft 455 kts 182°
2026-05-06 01:07 12.27270 108.11508 35975 ft 454 kts 182°
2026-05-06 01:08 12.20947 108.11385 35975 ft 454 kts 182°
2026-05-06 01:08 12.14662 108.11266 35979 ft 454 kts 182°
2026-05-06 01:09 12.08341 108.11144 35981 ft 454 kts 182°
2026-05-06 01:09 12.02024 108.11017 35985 ft 454 kts 182°
2026-05-06 01:10 11.95703 108.10764 35982 ft 452 kts 189°
2026-05-06 01:10 11.89746 108.08844 35975 ft 449 kts 208°
2026-05-06 01:11 11.84648 108.05186 35972 ft 449 kts 218°
2026-05-06 01:11 11.79762 108.01271 35971 ft 450 kts 218°
2026-05-06 01:12 11.74799 107.97306 35967 ft 450 kts 218°
2026-05-06 01:12 11.69888 107.93391 35960 ft 451 kts 218°
2026-05-06 01:13 11.64943 107.89444 35831 ft 453 kts 218°
2026-05-06 01:13 11.62460 107.87458 35588 ft 453 kts 218°
2026-05-06 01:13 11.59972 107.85477 35353 ft 454 kts 218°
2026-05-06 01:13 11.57478 107.83497 35119 ft 455 kts 218°
2026-05-06 01:14 11.52482 107.79521 34657 ft 456 kts 218°
2026-05-06 01:14 11.49980 107.77526 34431 ft 457 kts 218°
2026-05-06 01:14 11.47469 107.75524 33990 ft 459 kts 218°
2026-05-06 01:15 11.45030 107.73581 32983 ft 468 kts 217°
2026-05-06 01:15 11.42479 107.71554 32098 ft 472 kts 217°
2026-05-06 01:15 11.39869 107.69482 31127 ft 479 kts 217°
2026-05-06 01:15 11.37240 107.67394 30468 ft 478 kts 217°
2026-05-06 01:16 11.34586 107.65285 29799 ft 476 kts 217°
2026-05-06 01:16 11.31981 107.63211 29129 ft 474 kts 217°
2026-05-06 01:16 11.29390 107.61148 28509 ft 471 kts 217°
2026-05-06 01:16 11.26857 107.59133 27898 ft 467 kts 217°
2026-05-06 01:17 11.24299 107.57103 27289 ft 464 kts 217°
2026-05-06 01:17 11.21764 107.55093 26687 ft 460 kts 217°
2026-05-06 01:17 11.19245 107.53097 26090 ft 457 kts 217°
2026-05-06 01:17 11.16743 107.51112 25499 ft 454 kts 217°
2026-05-06 01:18 11.14259 107.49140 24914 ft 452 kts 217°
2026-05-06 01:18 11.11789 107.47177 24334 ft 449 kts 217°
2026-05-06 01:18 11.09335 107.45226 23772 ft 446 kts 218°
2026-05-06 01:18 11.06894 107.43290 23181 ft 443 kts 217°
2026-05-06 01:19 11.04475 107.41375 22650 ft 438 kts 217°
2026-05-06 01:19 11.02088 107.39485 22150 ft 432 kts 217°
2026-05-06 01:19 10.99736 107.37623 21672 ft 425 kts 217°
2026-05-06 01:19 10.97417 107.35783 21184 ft 420 kts 217°
2026-05-06 01:20 10.95130 107.33966 20726 ft 415 kts 217°
2026-05-06 01:20 10.92869 107.32173 20259 ft 410 kts 217°
2026-05-06 01:20 10.90632 107.30402 19786 ft 406 kts 217°
2026-05-06 01:20 10.88411 107.28644 19316 ft 402 kts 217°
2026-05-06 01:21 10.86209 107.26898 18835 ft 400 kts 217°
2026-05-06 01:21 10.84025 107.25165 18358 ft 398 kts 217°
2026-05-06 01:21 10.81849 107.23440 17827 ft 396 kts 217°
2026-05-06 01:21 10.79764 107.21625 17332 ft 394 kts 226°
2026-05-06 01:22 10.78109 107.19422 16844 ft 391 kts 239°
2026-05-06 01:22 10.76985 107.16915 16362 ft 389 kts 252°
2026-05-06 01:22 10.76423 107.14235 15878 ft 387 kts 262°
2026-05-06 01:22 10.76355 107.13698 15786 ft 385 kts 263°
2026-05-06 01:23 10.76019 107.11008 15304 ft 383 kts 262°
2026-05-06 01:23 10.75662 107.08327 14831 ft 382 kts 262°
2026-05-06 01:23 10.75298 107.05657 14353 ft 380 kts 262°
2026-05-06 01:23 10.74932 107.03001 13963 ft 377 kts 262°
2026-05-06 01:24 10.74573 107.00393 13405 ft 369 kts 262°
2026-05-06 01:24 10.74223 106.97822 12673 ft 365 kts 262°
2026-05-06 01:24 10.73879 106.95271 11979 ft 362 kts 262°
2026-05-06 01:24 10.73542 106.92783 11350 ft 350 kts 262°
2026-05-06 01:25 10.73214 106.90359 10944 ft 339 kts 262°
2026-05-06 01:25 10.72899 106.88027 10823 ft 327 kts 262°
2026-05-06 01:25 10.72596 106.85773 10658 ft 316 kts 262°
2026-05-06 01:25 10.72300 106.83578 10238 ft 312 kts 262°
2026-05-06 01:26 10.71862 106.81432 9953 ft 309 kts 250°
2026-05-06 01:26 10.70936 106.79478 9861 ft 305 kts 235°
2026-05-06 01:26 10.69599 106.77787 9916 ft 307 kts 226°
2026-05-06 01:26 10.68166 106.76174 9910 ft 308 kts 226°
2026-05-06 01:27 10.66716 106.74547 9470 ft 311 kts 226°
2026-05-06 01:27 10.65279 106.72939 9108 ft 308 kts 226°
2026-05-06 01:27 10.63849 106.71336 8753 ft 306 kts 226°
2026-05-06 01:27 10.62430 106.69748 8333 ft 301 kts 226°
2026-05-06 01:28 10.61032 106.68181 7833 ft 297 kts 226°
2026-05-06 01:28 10.59648 106.66632 7360 ft 296 kts 226°
2026-05-06 01:28 10.58268 106.65090 7053 ft 293 kts 225°
2026-05-06 01:28 10.56747 106.63730 7002 ft 292 kts 214°
2026-05-06 01:29 10.55095 106.62513 6999 ft 294 kts 214°
2026-05-06 01:29 10.53504 106.61200 6992 ft 296 kts 225°
2026-05-06 01:29 10.52262 106.59526 6999 ft 298 kts 240°
2026-05-06 01:29 10.51271 106.57676 6996 ft 299 kts 240°
2026-05-06 01:30 10.50275 106.55823 6998 ft 299 kts 240°
2026-05-06 01:30 10.49273 106.53969 6994 ft 299 kts 240°
2026-05-06 01:30 10.48271 106.52116 6995 ft 299 kts 240°
2026-05-06 01:30 10.47397 106.50203 6987 ft 299 kts 252°
2026-05-06 01:31 10.47021 106.48126 6997 ft 299 kts 268°
2026-05-06 01:31 10.47151 106.46020 7007 ft 299 kts 278°
2026-05-06 01:31 10.47389 106.43916 6997 ft 298 kts 277°
2026-05-06 01:31 10.47621 106.41822 6997 ft 299 kts 278°
2026-05-06 01:32 10.47851 106.39724 6998 ft 299 kts 277°
2026-05-06 01:32 10.48162 106.37637 6996 ft 298 kts 286°
2026-05-06 01:32 10.48933 106.35698 6992 ft 295 kts 302°
2026-05-06 01:32 10.50145 106.34038 6998 ft 292 kts 314°
2026-05-06 01:33 10.51481 106.32512 6941 ft 291 kts 314°
2026-05-06 01:33 10.52846 106.30997 6971 ft 291 kts 321°
2026-05-06 01:33 10.54550 106.29947 6886 ft 284 kts 344°
2026-05-06 01:33 10.56464 106.29681 6529 ft 276 kts
2026-05-06 01:34 10.58287 106.30184 6152 ft 270 kts 30°
2026-05-06 01:34 10.59758 106.31314 5843 ft 263 kts 50°
2026-05-06 01:34 10.60755 106.32814 5702 ft 251 kts 60°
2026-05-06 01:34 10.61643 106.34303 5580 ft 241 kts 60°
2026-05-06 01:35 10.62503 106.35736 5416 ft 233 kts 60°
2026-05-06 01:35 10.63343 106.37134 5184 ft 230 kts 60°
2026-05-06 01:35 10.64171 106.38512 5031 ft 228 kts 60°
2026-05-06 01:35 10.64982 106.39860 5015 ft 216 kts 60°
2026-05-06 01:36 10.65749 106.41132 4815 ft 208 kts 60°
2026-05-06 01:36 10.66501 106.42385 4510 ft 207 kts 60°
2026-05-06 01:36 10.67247 106.43630 4190 ft 206 kts 60°
2026-05-06 01:36 10.68123 106.44777 3890 ft 206 kts 46°
2026-05-06 01:37 10.69281 106.45639 3593 ft 208 kts 31°
2026-05-06 01:37 10.70601 106.46242 3296 ft 208 kts 27°
2026-05-06 01:37 10.71922 106.46834 2972 ft 207 kts 27°
2026-05-06 01:37 10.73217 106.47416 2782 ft 197 kts 27°
2026-05-06 01:38 10.74370 106.48043 2663 ft 180 kts 38°
2026-05-06 01:38 10.75285 106.48804 2536 ft 161 kts 48°
2026-05-06 01:38 10.75988 106.49641 2324 ft 152 kts 58°
2026-05-06 01:38 10.76514 106.50566 2035 ft 149 kts 68°
2026-05-06 01:39 10.76901 106.51557 2003 ft 152 kts 71°
2026-05-06 01:39 10.77284 106.52574 2007 ft 155 kts 70°
2026-05-06 01:39 10.77665 106.53576 2009 ft 154 kts 70°
2026-05-06 01:39 10.78052 106.54590 2006 ft 154 kts 71°
2026-05-06 01:40 10.78437 106.55609 1981 ft 155 kts 71°
2026-05-06 01:40 10.78811 106.56609 1775 ft 147 kts 71°
2026-05-06 01:40 10.79174 106.57562 1474 ft 144 kts 71°
2026-05-06 01:40 10.79531 106.58509 1143 ft 141 kts 71°
2026-05-06 01:41 10.79882 106.59434 925 ft 139 kts 70°
2026-05-06 01:41 10.80239 106.60344 755 ft 141 kts 68°
2026-05-06 01:41 10.80583 106.61276 581 ft 140 kts 73°
2026-05-06 01:41 10.80921 106.62222 413 ft 142 kts 68°
2026-05-06 01:42 10.81290 106.63148 213 ft 140 kts 70°
2026-05-06 01:42 10.81592 106.63949 56 ft 139 kts 70°
2026-05-06 01:42 10.81911 106.64783 40 ft 106 kts 69°
2026-05-06 01:42 10.82095 106.65283 37 ft 43 kts 69°
2026-05-06 01:43 10.82131 106.65466 40 ft 22 kts 90°
2026-05-06 01:43 10.82115 106.65612 41 ft 19 kts 98°
2026-05-06 01:43 10.82101 106.65718 40 ft 15 kts 94°
2026-05-06 01:43 10.82120 106.65817 40 ft 14 kts 70°
2026-05-06 01:44 10.82156 106.65911 39 ft 14 kts 69°
2026-05-06 01:44 10.82191 106.66004 40 ft 14 kts 69°
2026-05-06 01:44 10.82187 106.66089 40 ft 12 kts 135°
2026-05-06 01:44 10.82125 106.66095 40 ft 8 kts 185°
2026-05-06 01:45 10.82067 106.66090 40 ft 8 kts 185°
2026-05-06 01:45 10.82008 106.66084 39 ft 9 kts 185°
2026-05-06 01:45 10.81948 106.66079 39 ft 9 kts 185°
2026-05-06 01:45 10.81892 106.66073 39 ft 8 kts 186°
2026-05-06 01:46 10.81841 106.66069 39 ft 7 kts 184°
2026-05-06 01:46 10.81778 106.66063 39 ft 14 kts 185°
2026-05-06 01:46 10.81709 106.66056 39 ft 8 kts 185°
2026-05-06 01:46 10.81654 106.66051 39 ft 7 kts 183°
2026-05-06 01:47 10.81617 106.66064 39 ft 3 kts 140°
2026-05-06 01:47 10.81608 106.66083 39 ft 3 kts 107°
2026-05-06 01:47 10.81606 106.66099 39 ft 2 kts 94°
2026-05-06 01:47 10.81604 106.66110 39 ft 1 kts 95°
2026-05-06 01:48 10.81604 106.66118 39 ft 1 kts 95°
2026-05-06 01:48 10.81603 106.66129 39 ft 1 kts 95°
2026-05-06 01:48 10.81603 106.66132 39 ft 0 kts 95°